Orbital Elements
Epoch 2019 Feb. 6.0 TT = JDT 2458520.5
T 2019 Feb. 7.02951 TT Rudenko
q 1.2869921 (2000.0) P Q
z +0.0069390 Peri. 358.05613 -0.85992921 +0.47751196
+/-0.0000010 Node 147.48353 +0.47270413 +0.61181681
e 0.9910696 Incl. 160.40344 +0.19254235 +0.63060489
From 2586 observations 2018 Dec. 18-2019 Dec. 2, mean residual 0".5.
|